Total_Precipitation_Accumulation
0.29 0.34 0.43 0.58 0.52 0.36 0.16 0.05 0.01 0.02 0.04 0.04 0.05 0.05 0.06 0.10 0.14 0.20 0.17 0.18 0.17 0.20 0.29 0.49 0.67 0.68 0.63 0.56 0.49 0.45 0.46 0.51 0.57 0.61 0.62 0.57 0.55 0.55 0.61 0.62 0.62 0.64 0.67 0.73 0.81 0.82 0.77 0.67 0.47
0.34 0.48 0.69 0.79 0.55 0.32 0.16 0.05 0.02 0.02 0.04 0.04 0.05 0.06 0.09 0.13 0.15 0.16 0.18 0.25 0.29 0.28 0.35 0.50 0.69 0.72 0.70 0.63 0.53 0.51 0.53 0.56 0.65 0.70 0.72 0.72 0.69 0.68 0.66 0.66 0.63 0.62 0.62 0.63 0.65 0.56 0.51 0.45 0.34
0.54 0.75 0.94 0.86 0.59 0.31 0.16 0.06 0.03 0.03 0.04 0.05 0.06 0.10 0.17 0.19 0.19 0.22 0.24 0.30 0.40 0.44 0.45 0.62 0.80 0.87 0.83 0.73 0.65 0.60 0.62 0.65 0.69 0.77 0.87 0.89 0.88 0.80 0.73 0.66 0.61 0.57 0.53 0.44 0.39 0.36 0.33 0.30 0.27
0.86 1.13 1.15 0.91 0.52 0.24 0.12 0.10 0.06 0.06 0.05 0.05 0.08 0.14 0.21 0.21 0.24 0.28 0.33 0.40 0.44 0.58 0.63 0.82 1.01 1.09 1.07 0.90 0.80 0.76 0.73 0.74 0.75 0.79 0.88 0.96 1.03 0.98 0.85 0.68 0.53 0.47 0.44 0.38 0.30 0.27 0.27 0.24 0.22
1.18 1.32 1.19 0.84 0.40 0.19 0.10 0.10 0.09 0.08 0.08 0.09 0.11 0.17 0.27 0.26 0.32 0.45 0.47 0.50 0.51 0.60 0.73 0.94 1.20 1.28 1.28 1.14 1.02 0.99 0.95 0.91 0.87 0.88 0.92 0.98 1.00 0.93 0.82 0.62 0.48 0.44 0.43 0.40 0.32 0.28 0.28 0.27 0.24
1.39 1.43 1.14 0.69 0.32 0.17 0.10 0.11 0.13 0.13 0.12 0.15 0.19 0.26 0.38 0.43 0.52 0.64 0.68 0.66 0.61 0.65 0.83 1.06 1.36 1.41 1.40 1.35 1.22 1.17 1.18 1.15 1.08 1.04 1.05 1.06 1.03 0.91 0.78 0.65 0.54 0.47 0.45 0.45 0.38 0.33 0.30 0.30 0.26
1.34 1.29 0.92 0.51 0.29 0.19 0.13 0.13 0.17 0.19 0.17 0.19 0.23 0.33 0.51 0.67 0.83 0.87 0.93 0.95 0.92 0.93 1.06 1.24 1.47 1.58 1.62 1.51 1.37 1.28 1.26 1.25 1.20 1.13 1.07 0.99 0.93 0.88 0.78 0.65 0.59 0.53 0.50 0.51 0.44 0.37 0.33 0.32 0.30
1.31 1.46 0.87 0.50 0.32 0.24 0.16 0.15 0.18 0.24 0.25 0.21 0.28 0.39 0.55 0.77 1.04 1.20 1.30 1.38 1.35 1.32 1.41 1.51 1.59 1.61 1.63 1.56 1.44 1.36 1.28 1.28 1.32 1.24 1.04 0.89 0.83 0.85 0.79 0.62 0.58 0.54 0.51 0.51 0.46 0.40 0.34 0.31 0.28
1.26 1.62 0.97 0.49 0.40 0.29 0.24 0.22 0.23 0.27 0.34 0.30 0.31 0.40 0.58 0.85 1.27 1.53 1.81 1.84 1.81 1.80 1.74 1.78 1.78 1.77 1.76 1.70 1.55 1.53 1.43 1.34 1.32 1.27 1.05 0.90 0.88 0.83 0.78 0.61 0.50 0.49 0.49 0.47 0.47 0.42 0.36 0.29 0.24
1.28 1.35 0.87 0.52 0.46 0.42 0.39 0.36 0.37 0.43 0.49 0.46 0.43 0.58 0.83 1.21 1.63 1.83 1.83 1.88 1.90 2.04 1.96 1.91 1.87 1.80 1.83 1.79 1.72 1.76 1.62 1.43 1.30 1.14 1.06 1.00 0.92 0.82 0.70 0.64 0.54 0.50 0.47 0.48 0.52 0.49 0.43 0.32 0.23
0.93 0.82 0.67 0.60 0.51 0.52 0.52 0.49 0.45 0.52 0.52 0.50 0.43 0.60 0.95 1.45 1.86 2.15 2.24 2.06 2.05 2.16 2.19 2.15 2.09 1.98 1.87 1.94 1.83 1.78 1.74 1.59 1.45 1.23 1.17 1.13 1.10 0.99 0.88 0.78 0.74 0.67 0.55 0.53 0.52 0.53 0.41 0.29 0.23
0.71 0.57 0.62 0.71 0.62 0.59 0.59 0.59 0.54 0.56 0.55 0.52 0.53 0.64 0.95 1.39 1.86 2.16 2.46 2.37 2.41 2.41 2.37 2.38 2.31 2.26 2.07 1.97 1.93 1.89 1.79 1.66 1.49 1.29 1.21 1.20 1.12 1.03 0.91 0.77 0.73 0.72 0.57 0.55 0.52 0.45 0.37 0.31 0.25
0.62 0.59 0.61 0.71 0.70 0.62 0.60 0.61 0.62 0.60 0.61 0.64 0.70 0.85 1.05 1.40 1.90 2.27 2.67 2.78 2.75 2.69 2.66 2.60 2.45 2.39 2.30 2.12 1.96 1.96 1.96 1.82 1.64 1.51 1.34 1.20 1.08 0.94 0.88 0.81 0.79 0.75 0.65 0.57 0.54 0.45 0.43 0.39 0.33
0.54 0.61 0.67 0.73 0.76 0.66 0.66 0.60 0.63 0.64 0.69 0.79 0.81 0.90 1.09 1.43 1.85 2.28 2.71 2.93 2.77 2.86 2.95 2.92 2.73 2.51 2.43 2.23 1.97 1.91 2.03 2.02 1.98 1.75 1.48 1.41 1.28 1.11 0.99 0.90 0.85 0.80 0.73 0.66 0.60 0.51 0.50 0.48 0.44
0.60 0.74 0.78 0.77 0.75 0.72 0.75 0.77 0.65 0.62 0.77 0.86 0.85 0.94 1.06 1.34 1.77 2.13 2.44 2.67 2.74 2.80 3.03 3.11 2.99 2.83 2.60 2.45 2.23 2.00 2.09 2.14 2.12 1.98 1.75 1.64 1.55 1.40 1.26 1.11 0.97 0.84 0.79 0.79 0.78 0.74 0.68 0.60 0.53
0.94 1.05 0.98 0.74 0.73 0.72 0.87 0.89 0.63 0.62 0.74 0.84 0.89 0.95 1.04 1.18 1.61 2.03 2.27 2.52 2.78 2.82 2.92 3.15 3.14 3.07 2.92 2.70 2.47 2.18 2.08 2.12 2.09 1.95 1.85 1.75 1.64 1.56 1.46 1.26 1.11 1.05 1.02 0.97 0.95 0.91 0.84 0.72 0.60
1.34 1.16 0.80 0.67 0.69 0.74 0.81 0.83 0.64 0.58 0.70 0.79 0.88 0.92 0.99 1.07 1.36 1.83 2.16 2.34 2.67 2.78 2.87 3.05 3.15 3.18 3.23 3.13 2.94 2.57 2.25 2.23 2.21 2.04 1.81 1.73 1.68 1.61 1.54 1.38 1.24 1.24 1.21 1.12 1.05 1.02 0.95 0.86 0.76
0.98 0.78 0.61 0.64 0.66 0.65 0.69 0.73 0.70 0.67 0.73 0.75 0.86 0.95 0.98 1.02 1.14 1.49 1.99 2.21 2.69 2.97 3.08 3.12 3.23 3.42 3.56 3.65 3.44 3.15 2.68 2.40 2.32 2.20 1.95 1.75 1.69 1.65 1.59 1.50 1.39 1.31 1.34 1.31 1.23 1.12 1.05 0.98 0.90
0.72 0.66 0.58 0.57 0.56 0.64 0.66 0.71 0.75 0.73 0.71 0.76 0.86 0.94 0.97 0.99 1.10 1.39 1.82 2.12 2.55 3.02 3.21 3.28 3.23 3.40 3.67 3.58 3.34 3.06 2.75 2.53 2.35 2.28 2.17 1.94 1.79 1.70 1.61 1.50 1.50 1.46 1.37 1.34 1.35 1.35 1.30 1.21 1.14
0.91 0.83 0.66 0.61 0.57 0.69 0.69 0.72 0.69 0.68 0.68 0.70 0.78 0.85 0.88 0.88 1.02 1.30 1.60 1.92 2.16 2.75 3.10 3.16 3.29 3.43 3.61 3.50 3.36 3.25 3.12 2.89 2.66 2.53 2.29 2.11 1.92 1.76 1.70 1.58 1.45 1.48 1.49 1.40 1.39 1.41 1.46 1.47 1.46
1.01 0.86 0.67 0.70 0.77 0.74 0.72 0.79 0.65 0.61 0.59 0.60 0.72 0.81 0.81 0.82 0.97 1.17 1.36 1.65 1.82 2.21 2.66 2.87 2.97 3.24 3.42 3.57 3.82 3.79 3.61 3.22 2.75 2.47 2.34 2.20 2.17 2.03 1.83 1.78 1.68 1.52 1.52 1.47 1.38 1.32 1.32 1.38 1.47
1.02 0.67 0.67 0.72 0.93 0.98 0.79 1.01 0.72 0.60 0.58 0.58 0.69 0.78 0.79 0.80 0.91 1.09 1.24 1.35 1.55 1.80 2.21 2.59 2.81 3.01 3.13 3.24 3.47 3.58 3.42 3.03 2.63 2.38 2.38 2.43 2.36 2.33 2.21 2.05 1.94 1.78 1.66 1.58 1.54 1.52 1.45 1.42 1.42
0.91 0.63 0.74 0.84 1.00 1.04 0.74 0.90 0.79 0.60 0.65 0.65 0.71 0.78 0.80 0.86 0.97 1.08 1.15 1.16 1.28 1.53 1.93 2.29 2.57 2.82 2.89 2.91 3.03 3.24 3.33 3.19 2.99 2.72 2.56 2.53 2.48 2.37 2.30 2.22 2.13 1.97 1.83 1.76 1.75 1.69 1.65 1.61 1.53
0.97 1.01 1.15 1.28 1.64 1.67 0.73 0.71 0.75 0.73 0.82 0.73 0.70 0.79 0.85 0.96 1.05 1.07 1.11 1.11 1.16 1.32 1.60 1.94 2.24 2.57 2.77 2.74 2.87 2.97 2.99 3.08 3.01 2.73 2.63 2.54 2.59 2.51 2.36 2.23 2.17 2.10 2.01 1.92 1.89 1.88 1.82 1.72 1.65
1.48 2.01 2.58 2.58 2.38 1.45 0.48 0.54 0.80 0.74 0.76 0.77 0.78 0.82 0.84 0.89 0.97 0.97 0.97 1.01 1.11 1.23 1.38 1.62 1.78 2.07 2.41 2.54 2.62 2.72 2.78 2.80 2.87 2.77 2.66 2.58 2.46 2.39 2.38 2.29 2.24 2.21 2.07 1.99 1.96 1.92 1.84 1.80 1.73
1.52 1.81 2.01 1.78 1.22 0.71 0.45 0.64 0.79 0.69 0.69 0.71 0.73 0.78 0.86 0.94 0.99 0.99 0.97 1.02 1.13 1.19 1.28 1.42 1.55 1.70 2.00 2.26 2.29 2.35 2.52 2.59 2.55 2.57 2.50 2.44 2.34 2.26 2.30 2.33 2.23 2.20 2.16 2.03 1.96 1.90 1.79 1.76 1.74
1.46 1.39 1.13 1.41 1.02 0.78 0.67 0.62 0.59 0.50 0.54 0.60 0.61 0.65 0.81 0.92 0.94 0.98 1.01 1.08 1.12 1.16 1.22 1.31 1.41 1.45 1.61 1.92 2.07 2.13 2.19 2.21 2.14 2.12 2.12 2.13 2.13 2.12 2.13 2.17 2.10 2.02 2.00 1.96 1.91 1.86 1.75 1.69 1.64
1.27 1.14 1.23 1.69 1.46 1.06 0.66 0.55 0.73 0.65 0.64 0.64 0.65 0.68 0.78 0.87 0.93 0.99 1.04 1.02 1.00 1.04 1.13 1.24 1.27 1.26 1.33 1.50 1.69 1.88 1.94 1.91 1.93 1.90 1.81 1.78 1.76 1.78 1.85 1.90 1.90 1.86 1.81 1.79 1.76 1.70 1.67 1.66 1.56
1.06 1.24 1.34 1.35 1.14 1.16 0.85 0.76 0.76 0.70 0.70 0.72 0.77 0.77 0.82 0.86 0.96 1.05 1.08 1.03 0.98 1.01 1.10 1.19 1.17 1.16 1.19 1.29 1.37 1.50 1.64 1.68 1.71 1.70 1.57 1.54 1.49 1.45 1.50 1.51 1.54 1.58 1.59 1.58 1.58 1.54 1.52 1.54 1.50
0.84 0.96 1.13 1.48 1.15 0.90 0.90 0.81 0.60 0.59 0.64 0.69 0.79 0.80 0.81 0.83 0.89 0.96 1.00 0.98 1.00 1.05 1.10 1.17 1.15 1.14 1.11 1.17 1.21 1.25 1.37 1.50 1.54 1.58 1.49 1.38 1.37 1.30 1.29 1.29 1.27 1.26 1.28 1.30 1.31 1.30 1.31 1.34 1.35